This is the latest recevied weather packets stored in our database for station/object EA2CW-13. If no packets are shown the sender has not sent any weather packets the latest 10 day(s).
| Time | Temp. | Humidity | Pressure | Rain* | Wind** | Luminosity | Snow |
|---|---|---|---|---|---|---|---|
| 1777598417 | 18.33° C | 79% | 1056.6 hPa | - | - | 0 W/m² | - |
| 1777597481 | 18.33° C | 80% | 1056.7 hPa | - | - | 0 W/m² | - |
| 1777596545 | 18.33° C | 80% | 1056.6 hPa | - | - | 0 W/m² | - |
| 1777595609 | 18.33° C | 81% | 1056.6 hPa | - | - | 0 W/m² | - |
| 1777594673 | 18.33° C | 80% | 1056.8 hPa | - | - | 0 W/m² | - |
| 1777593737 | 18.33° C | 81% | 1056.7 hPa | - | - | 0 W/m² | - |
| 1777592801 | 17.78° C | 81% | 1056.7 hPa | - | - | 0 W/m² | - |
| 1777591865 | 17.78° C | 82% | 1056.7 hPa | - | - | 0 W/m² | - |
| 1777590929 | 17.78° C | 82% | 1056.7 hPa | - | - | 0 W/m² | - |
| 1777589993 | 17.22° C | 83% | 1056.7 hPa | - | - | 0 W/m² | - |
| 1777589057 | 17.78° C | 82% | 1056.5 hPa | - | - | 0 W/m² | - |
| 1777588122 | 17.78° C | 81% | 1056.5 hPa | - | - | 0 W/m² | - |
| 1777587185 | 17.78° C | 80% | 1056.4 hPa | - | - | 0 W/m² | - |
| 1777586250 | 18.33° C | 78% | 1056.4 hPa | - | - | 0 W/m² | - |
| 1777585314 | 18.33° C | 77% | 1056.4 hPa | - | - | 0 W/m² | - |
| 1777584378 | 18.33° C | 76% | 1056.5 hPa | - | - | 0 W/m² | - |
| 1777583442 | 18.89° C | 76% | 1056.7 hPa | - | - | 0 W/m² | - |
| 1777582506 | 18.33° C | 76% | 1056.5 hPa | - | - | 0 W/m² | - |
| 1777581570 | 18.89° C | 75% | 1056.6 hPa | - | - | 0 W/m² | - |
| 1777580634 | 18.89° C | 75% | 1056.4 hPa | - | - | 0 W/m² | - |
| 1777579698 | 18.89° C | 75% | 1056.3 hPa | - | - | 0 W/m² | - |
| 1777578762 | 19.44° C | 75% | 1056 hPa | - | - | 0 W/m² | - |
| 1777577826 | 19.44° C | 74% | 1055.7 hPa | - | - | 0 W/m² | - |
| 1777576890 | 18.89° C | 73% | 1055.7 hPa | - | - | 0 W/m² | - |
| 1777575954 | 19.44° C | 71% | 1055.5 hPa | - | - | 1 W/m² | - |
* Rain since midnight (hover to see other rain measurements)
** Current wind speed in m/s (hover to see current wind gust speed)